Regional Weather Roundup
Issued by NWS

Home | Current Version | Previous Version | Graphics & Text | Print | Product List | Glossary On
Versions: 1 2 3 4 5 6 7 8 9 10 11 12 13 14 15 16 17 18 19 20 21 22 23 24 25 26 27
000
ASUS45 KCYS 220610
RWRWY

WYOMING REGIONAL WEATHER ROUNDUP
NATIONAL WEATHER SERVICE CHEYENNE WY
1200 AM MDT WED OCT 22 2014

NOTE:  "FAIR" INDICATES FEW OR NO CLOUDS BELOW 12,000 FEET
WITH NO SIGNIFICANT WEATHER AND/OR OBSTRUCTIONS TO VISIBILITY.

WYZ001-220700-
YELLOWSTONE NATIONAL PARK

CITY           SKY/WX    TMP DP  RH WIND       PRES   REMARKS
LK YELLOWSTONE   N/A     27  25  92 CALM      30.12R
6HR MIN TEMP:  27; 6HR MAX TEMP:  35; 6HR PCP:  0.04;

W YELLOWSTONE  NOT AVBL

$$
WYZ002>013-054>058-071-098>099-220700-
NORTHERN WYOMING

CITY           SKY/WX    TMP DP  RH WIND       PRES   REMARKS
JACKSON        CLOUDY    37  30  75 E3        30.11R
CODY           CLEAR    N/A N/A N/A W7        29.97R
GREYBULL       CLEAR     44  21  40 W6        29.93R
6HR MIN TEMP:  44; 6HR MAX TEMP:  66;

WORLAND        CLEAR     40  22  48 E3        29.94R
6HR MIN TEMP:  39; 6HR MAX TEMP:  67; 6HR PCP: TRACE;

SHERIDAN       MOCLDY    48  29  47 NW12G23   29.92R
6HR MIN TEMP:  48; 6HR MAX TEMP:  72;

BUFFALO        MOCLDY    52  22  30 NW9       29.94R
6HR MIN TEMP:  51; 6HR MAX TEMP:  68;

GILLETTE       MOCLDY    54  23  30 NW17      29.89R
6HR MIN TEMP:  54; 6HR MAX TEMP:  68; 6HR PCP: TRACE;

HULETT         FAIR      59  36  41 N14G20    29.87
NEWCASTLE      FAIR      61  32  33 W9        29.86

$$
WYZ014>020-022>026-101>103-220700-
CENTRAL WYOMING

CITY           SKY/WX    TMP DP  RH WIND       PRES   REMARKS
BIG PINEY      CLEAR     29  23  78 W5        30.13R WCI  24
6HR MIN TEMP:  28; 6HR MAX TEMP:  47;

PINEDALE       PTCLDY    28  27  93 W3        30.13R
DUBOIS         FAIR      32  23  69 NW10      30.05S WCI  24
LANDER         CLEAR     41  23  48 SE9       30.00R
6HR MIN TEMP:  40; 6HR MAX TEMP:  62;

RIVERTON       CLEAR     45  21  38 NW22      29.99R
6HR MIN TEMP:  45; 6HR MAX TEMP:  60;

CASPER         MOCLDY    50  37  61 SW13      29.97R
6HR MIN TEMP:  49; 6HR MAX TEMP:  65; 6HR PCP: TRACE;

DOUGLAS        MOCLDY    59  38  45 SW10      29.94R
6HR MIN TEMP:  56; 6HR MAX TEMP:  68; 6HR PCP: TRACE;


$$
WYZ021-027>030-104>119-220700-
SOUTHERN WYOMING

CITY           SKY/WX    TMP DP  RH WIND       PRES   REMARKS
EVANSTON       CLEAR     38  25  59 N5        30.14R WCI  34
6HR MIN TEMP:  37; 6HR MAX TEMP:  48;

KEMMERER       CLEAR     32  27  80 SW5       30.13S WCI  27
FORT BRIDGER   FAIR      36  28  72 NW7       30.16S WCI  30
ROCK SPRINGS   MOCLDY    41  31  67 SW18      30.10S
6HR MIN TEMP:  40; 6HR MAX TEMP:  51; 6HR PCP:  0.01;

DIXON          CLOUDY    45  42  89 SE6       30.15R
RAWLINS        CLOUDY    45  40  82 SW10      30.09R
6HR MIN TEMP:  42; 6HR MAX TEMP:  57; 6HR PCP:  0.04;

SARATOGA       CLOUDY    43  37  81 SW10      30.12S
LARAMIE        CLOUDY    42  38  85 S5        30.08S
6HR MIN TEMP:  42; 6HR MAX TEMP:  53; 6HR PCP:  0.01;

CHEYENNE       RAIN      52  40  63 N6        30.05R
6HR MIN TEMP:  51; 6HR MAX TEMP:  61; 6HR PCP:  0.01;

TORRINGTON     LGT RAIN  55  44  66 W10       29.91R
6HR MIN TEMP:  55; 6HR MAX TEMP:  67; 6HR PCP: TRACE;

PINE BLUFFS    RAIN      52  48  87 NW5       30.01S

$$



USA.gov is the U.S. government's official web portal to all federal, state and local government web resources and services.